STARLINK-33782

Last updated on Thu Jul 03 2025 00:02:06 GMT+0000 (Coordinated Universal Time)

1 64332U 25124R 25183.58335648 .00049035 00000+0 83769-3 0 9999 2 64332 43.0002 98.8701 0001670 258.1766 178.0754 15.50536090 4539
UTC large
Height (km)
Speed (km/s)
/
Latitude / Longitude
Inclination (degrees)
Orbital Period (minutes)
Azimuth
Elevation
Range (km)
Doppler Factor

Next 0 passes for location: London (51.5072 / 0.1276)

Sorry there are no passes over London.